Regional Weather Roundup
Issued by NWS

Home | Current Version | Previous Version | Graphics & Text | Print | Product List | Glossary On
Versions: 1 2 3 4 5 6 7 8 9 10 11 12 13 14 15 16 17 18 19 20 21 22 23 24 25 26 27
000
ASUS45 KBOU 210907
RWRCO

WEATHER ROUNDUP FOR COLORADO
NATIONAL WEATHER SERVICE DENVER/BOULDER CO
200 AM MST SAT JAN 21 2017

NOTE: "FAIR" INDICATES FEW OR NO CLOUDS BELOW 12000 FEET WITH NO
SIGNIFICANT WEATHER AND/OR OBSTRUCTIONS TO VISIBILITY.

COZ001>005-013-030-031-211000-
...NORTHWEST COLORADO...

CITY           SKY/WX    TMP DP  RH WIND       PRES   REMARKS
CRAIG          CLOUDY    27  16  63 SE6       29.38F WCI  20
HAYDEN         MOCLDY    19  12  73 SE9       29.38F WCI   9
MEEKER         MOCLDY    20  15  81 CALM      29.36F
MOUNT WERNER   NOT AVBL
STEAMBOAT SPGS MOCLDY    15  13  92 CALM      29.38F
WALDEN           N/A     14   9  79 E7        29.39F WCI   4
$$

COZ006>008-011-211000-
...WEST CENTRAL VALLEYS...

CITY           SKY/WX    TMP DP  RH WIND       PRES   REMARKS
GRAND JUNCTION CLOUDY    34  29  82 E9        29.36F WCI  27
MONTROSE       CLOUDY    31  19  61 E8        29.41F WCI  23
EAGLE          FAIR      12  10  92 S3        29.45F
RIFLE          FAIR      25  23  92 SW6       29.39F WCI  18
DELTA          CLOUDY    34  28  79 E8        29.40F WCI  27
NUCLA          LGT SNOW  32  30  93 CALM      29.41F
$$

COZ017>023-064>068-211000-
...SOUTHWEST COLORADO...

CITY           SKY/WX    TMP DP  RH WIND       PRES   REMARKS
DURANGO        SNOW      27  25  92 NE7       29.45F VSB 1/2 WCI  19
CORTEZ         SNOW      31  31 100 N5        29.40F VSB 1/2 WCI  26
PAGOSA SPRINGS LGT SNOW  26  25  98 CALM      29.47F
TELLURIDE      NOT AVBL
WOLF CREEK PAS CLOUDY    12  12 100 S17G26    29.46S WCI  -5
$$

COZ009-010-012-014-032>034-037-058>063-211000-
...CENTRAL COLORADO...

CITY           SKY/WX    TMP DP  RH WIND       PRES   REMARKS
ASPEN          FAIR      15  13  91 VRB3      29.37F
BUENA VISTA    FAIR      10   4  76 W9        29.43F WCI  -3
COPPER MTN     FAIR      14   5  67 MISG      29.37F
BERTHOUD PASS  NOT AVBL
COTTONWOOD PAS FAIR      19  10  68 CALM      29.40F
GUNNISON       MOCLDY    10   5  80 NE8       29.47F WCI  -2
KREMMLING      FOG      N/A N/A N/A CALM      29.44F VSB 1/4
LEADVILLE      FAIR       4   1  88 VRB3      29.38F
MONARCH PASS     N/A      9   3  78 SW7       29.49F WCI  -3
SALIDA         FAIR      27  16  62 SW9       29.50F WCI  18
SUNLIGHT       FOG       12   9  85 MISG      29.41F VSB 1/2
WILKERSON PASS NOT AVBL
$$

COZ069>075-211000-
...SAN LUIS VALLEY/SANGRE DE CRISTO MOUNTAINS...

CITY           SKY/WX    TMP DP  RH WIND       PRES   REMARKS
ALAMOSA        MOCLDY    14  12  92 W7        29.48R WCI   4
LA VETA PASS   FAIR      18  14  86 NE18G31   29.42S WCI   2
SAGUACHE       FAIR       9   3  78 NW7       29.49S WCI  -3
$$

COZ035-036-038>040-211000-
...NORTHERN COLORADO FRONT RANGE...

CITY           SKY/WX    TMP DP  RH WIND       PRES   REMARKS
DENVER INTL AP FAIR      26  17  68 S12       29.38F WCI  16
DMNS CITY PARK   N/A     29  20  69 SE5       29.38S WCI  24
AURORA         MOCLDY    27  18  69 SW6       29.38F WCI  20
FRONT RANGE AP FAIR      27  21  80 SE5       29.39F WCI  21
ERIE MUNI ARPT FAIR      26  24  91 CALM      29.39F
BOULDER MUN AP FAIR      32  27  80 CALM      29.38F
CENTENNIAL     FAIR      30  14  51 S8        29.38F WCI  22
BROOMFIELD     FAIR      32  21  64 N9        29.38F WCI  24
FORT COLLINS   FAIR      25  21  86 N5        29.41F WCI  19
LONGMONT       FAIR      30  26  86 CALM      29.41F
$$

COZ041-046-047-076>085-087-088-211000-
...PIKES PEAK/PALMER DIVIDE AND SOUTHERN FOOTHILLS...

CITY           SKY/WX    TMP DP  RH WIND       PRES   REMARKS
COLO. SPRINGS  MOCLDY    29  22  75 E3        29.41S
A. F. ACADEMY  FAIR      24  21  91 S5        29.39S WCI  18
SCHRIEVER AFB  NOT AVBL
ELLICOTT       FAIR     N/A N/A N/A S3        29.39F
FALCON         FAIR      24  20  84 NE5       29.41S WCI  18
FORT CARSON    FAIR      27  26  93 NW5       29.39F WCI  22
LIMON          MOCLDY    17  17 100 N5        29.42F FOG     WCI  10
MONUMENT HILL  MOCLDY    28  12  50 S3        29.40F
TRINIDAD       FAIR      27  12  53 CALM      29.42F
$$

COZ042>045-048>051-090-091-211000-
...NORTHEAST COLORADO...

CITY           SKY/WX    TMP DP  RH WIND       PRES   REMARKS
GREELEY ARPT   FAIR      25  22  88 N6        29.42F WCI  18
AKRON          FAIR      31  18  58 CALM      29.42S
BURLINGTON     FAIR      27  24  89 W6        29.44S WCI  20
WRAY           NOT AVBL
STERLING       FAIR      23  21  93 SW5       29.42S WCI  17
HOLYOKE        FAIR      28  25  86 W7        29.43R WCI  21
FORT MORGAN    FAIR      27  26  94 CALM      29.42F
$$

COZ086-089-092>099-211000-
...SOUTHEAST COLORADO...

CITY           SKY/WX    TMP DP  RH WIND       PRES   REMARKS
PUEBLO         FOG       29  28  96 NE3       29.42F VSB 1/4
LA JUNTA       FOG       26  24  92 NW8       29.43F VSB 1/4 WCI  18
LAMAR          FOG       23  21  92 CALM      29.44F VSB 1/2
SPRINGFIELD      N/A     27  26  96 W3        29.43F
$$




USA.gov is the U.S. government's official web portal to all federal, state and local government web resources and services.